Location: Lancaster
(34.6980°N, 118.1360°W)
Time: 15:50:24
(UTC-07:00)

Vanguard 1 - Visible Passes

Search period start: 24 June 2018 00:00
Search period end: 04 July 2018 00:00
Orbit: 650 x 3833 km, 34.3° (Epoch: 24 June)

Date Brightness Start Highest point End Pass type
(mag) Time Alt. Az. Time Alt. Az. Time Alt. Az.
24 Jun 12.0 03:37:03 12° SSE 03:40:45 17° SE 03:46:30 10° E visible
25 Jun 11.7 03:56:52 15° S 04:01:00 26° SE 04:09:09 10° E visible
26 Jun 11.5 04:16:41 16° SSW 04:21:23 36° SE 04:31:12 10° E visible
27 Jun 11.2 04:36:29 14° SW 04:41:58 48° SSE 04:53:01 10° E visible
28 Jun 12.0 02:43:34 13° SE 02:43:42 13° SE 02:46:55 10° ESE visible
28 Jun 11.0 04:56:17 10° SW 05:02:42 61° SSE 05:14:44 10° E visible
29 Jun 11.4 03:03:21 21° SE 03:04:00 21° SE 03:09:45 10° E visible
30 Jun 10.9 03:23:07 29° SSE 03:24:26 31° SE 03:31:44 10° E visible
01 Jul 10.6 03:42:52 32° SSW 03:45:01 44° SSE 03:53:25 10° E visible
02 Jul 10.4 04:02:37 28° SW 04:05:45 58° SSE 04:14:59 10° E visible
03 Jul 11.9 02:09:40 14° ESE 02:09:40 14° ESE 02:11:17 10° E visible
03 Jul 10.3 04:22:23 20° WSW 04:26:36 71° SSE 04:36:31 10° E visible
